EW0415 Weather Reports


time (UTC)temp
F
wind
direction
speed
knots
gust
knots
rain 1hr
in
rain 24hr
in
rain mn
in
humidity
%
barometer
mb
20260905144541 55 0 0.0 1.7 0.00 0.05 0.00 83 1022.6
20260905144016 55 0 0.0 2.6 0.00 0.05 0.00 83 1022.6
20260905143516 55 285 0.0 3.5 0.00 0.05 0.00 83 1022.7
20260905143047 55 284 0.9 6.1 0.00 0.05 0.00 82 1022.7
20260905142517 56 286 0.9 7.0 0.00 0.05 0.05 82 1022.6
20260905142015 56 291 1.7 7.0 0.00 0.05 0.05 82 1022.8
20260905141536 56 302 0.9 7.0 0.00 0.05 0.05 82 1022.8
20260905141021 56 304 1.7 7.0 0.00 0.05 0.05 82 1022.7
20260905140519 56 296 0.9 3.5 0.00 0.05 0.05 82 1022.7
20260905140035 56 296 1.7 3.5 0.00 0.05 0.05 82 1022.6
20260905135516 56 297 0.9 4.3 0.00 0.05 0.05 82 1022.6
20260905135019 56 298 0.0 5.2 0.00 0.05 0.05 81 1022.7
20260905134534 56 298 0.9 6.1 0.00 0.05 0.05 81 1022.8
20260905134016 55 298 1.7 6.1 0.00 0.05 0.05 81 1022.8
20260905133517 55 271 0.9 3.5 0.00 0.05 0.05 81 1022.6
20260905133033 55 271 0.9 3.5 0.00 0.05 0.05 81 1022.5
20260905132519 56 271 0.0 3.5 0.00 0.05 0.05 81 1022.6
20260905132022 56 271 0.9 7.8 0.00 0.05 0.05 80 1022.6
20260905131546 56 272 0.9 7.8 0.00 0.05 0.05 80 1022.4
20260905131021 56 277 1.7 5.2 0.00 0.05 0.05 80 1022.5
20260905130519 56 0 0.9 3.5 0.00 0.05 0.05 80 1022.4
20260905130034 56 0 0.9 7.0 0.00 0.05 0.05 80 1022.4
20260905125522 56 273 1.7 7.0 0.00 0.05 0.05 80 1022.4
20260905125016 56 280 1.7 7.0 0.00 0.05 0.05 79 1022.3
20260905124537 56 281 0.9 7.0 0.00 0.05 0.05 79 1022.3
20260905124021 56 277 0.9 2.6 0.00 0.05 0.05 79 1022.2
20260905123516 56 0 0.0 3.5 0.00 0.05 0.05 79 1022.3
20260905123032 56 277 0.9 5.2 0.00 0.05 0.05 79 1022.1
20260905122519 56 275 0.9 5.2 0.00 0.05 0.05 78 1022.0
20260905122019 56 275 1.7 6.1 0.00 0.05 0.05 78 1022.0
20260905121531 56 275 0.9 6.1 0.00 0.05 0.05 78 1021.9
20260905121023 56 0 1.7 6.1 0.00 0.05 0.05 78 1021.8
20260905120520 56 271 1.7 6.1 0.00 0.05 0.05 77 1021.9
20260905120034 56 267 0.9 7.0 0.00 0.05 0.05 77 1021.8
20260905115517 56 265 0.9 7.0 0.00 0.05 0.05 77 1021.8
20260905115018 56 284 0.9 6.1 0.00 0.05 0.05 77 1021.8
20260905114542 56 0 1.7 7.0 0.00 0.05 0.05 77 1021.6
20260905114020 56 281 1.7 7.0 0.00 0.05 0.05 77 1021.6
20260905113518 56 292 2.6 7.0 0.00 0.05 0.05 77 1021.6
20260905113038 56 259 0.9 7.0 0.00 0.05 0.05 76 1021.6
20260905112516 56 269 0.0 6.1 0.00 0.05 0.05 76 1021.6
20260905112018 56 269 1.7 6.1 0.00 0.05 0.05 76 1021.5
20260905111533 56 0 0.9 2.6 0.00 0.05 0.05 75 1021.4
20260905111015 56 0 0.0 2.6 0.00 0.05 0.05 75 1021.4
20260905110518 56 238 0.0 2.6 0.00 0.05 0.05 75 1021.4
20260905110035 56 238 0.0 6.1 0.00 0.05 0.05 74 1021.3
20260905105517 56 236 0.9 7.0 0.00 0.05 0.05 74 1021.3
20260905105019 56 0 0.9 7.0 0.00 0.05 0.05 74 1021.2
20260905104532 57 262 0.9 3.5 0.00 0.05 0.05 73 1021.2
20260905104018 57 0 0.0 6.1 0.00 0.05 0.05 73 1021.1
20260905103516 57 0 1.7 7.8 0.00 0.05 0.05 73 1021.1
20260905103033 57 260 0.9 7.8 0.00 0.05 0.05 73 1021.0
20260905102515 57 261 2.6 7.8 0.00 0.05 0.05 73 1020.9
20260905102021 57 219 1.7 7.8 0.00 0.05 0.05 73 1020.7
20260905101542 57 257 0.9 6.1 0.00 0.05 0.05 72 1020.8
20260905101016 57 283 0.9 7.0 0.00 0.05 0.05 72 1020.6
20260905100517 57 277 1.7 7.0 0.00 0.05 0.05 72 1020.5
20260905100034 57 250 1.7 7.0 0.00 0.05 0.05 72 1020.5
20260905095519 57 246 1.7 6.1 0.00 0.05 0.05 72 1020.4
20260905095020 57 252 1.7 6.1 0.00 0.05 0.05 72 1020.2
20260905094532 57 257 1.7 7.8 0.00 0.05 0.05 71 1020.0
20260905094021 57 227 1.7 7.8 0.00 0.05 0.05 71 1019.9
20260905093517 57 269 1.7 6.1 0.00 0.05 0.05 71 1019.9
20260905093036 57 213 1.7 6.1 0.00 0.05 0.05 71 1019.9
20260905092515 58 265 1.7 6.1 0.00 0.05 0.05 70 1019.9
20260905092016 58 236 1.7 7.0 0.00 0.05 0.05 70 1019.8
20260905091532 58 264 1.7 8.7 0.00 0.05 0.05 69 1019.7
20260905091017 58 259 1.7 8.7 0.00 0.05 0.05 69 1019.5
20260905090519 58 263 3.5 8.7 0.00 0.05 0.05 68 1019.5
20260905090037 58 183 2.6 9.6 0.00 0.05 0.05 68 1019.5
20260905085521 58 232 3.5 9.6 0.00 0.05 0.05 68 1019.4
20260905085021 58 261 1.7 8.7 0.00 0.05 0.05 67 1019.3
20260905084534 59 248 3.5 8.7 0.00 0.05 0.05 66 1019.1
20260905084016 59 269 2.6 11.3 0.00 0.05 0.05 65 1019.2
20260905083516 59 290 3.5 12.2 0.00 0.05 0.05 65 1018.8
20260905083037 59 273 4.3 12.2 0.00 0.05 0.05 65 1018.8
20260905082517 59 209 3.5 10.4 0.00 0.06 0.05 65 1018.8
20260905082016 59 296 4.3 10.4 0.00 0.06 0.05 65 1018.5
20260905081535 59 273 2.6 13.9 0.00 0.06 0.05 65 1018.4
20260905081020 59 345 4.3 13.9 0.00 0.06 0.05 66 1018.3
20260905080519 59 267 2.6 7.8 0.00 0.06 0.05 66 1018.1
20260905080041 59 212 1.7 9.6 0.00 0.06 0.05 66 1018.2
20260905075519 60 261 3.5 13.0 0.00 0.06 0.05 65 1017.9
20260905075017 60 360 4.3 13.0 0.00 0.06 0.05 65 1017.7
20260905074534 60 304 6.1 13.0 0.00 0.06 0.05 64 1017.9
20260905074018 60 277 4.3 13.0 0.00 0.06 0.05 64 1017.7
20260905073517 60 251 4.3 13.0 0.00 0.06 0.05 64 1017.7
20260905073037 60 257 3.5 14.8 0.00 0.06 0.05 64 1017.5
20260905072517 60 259 3.5 14.8 0.00 0.06 0.05 64 1017.4
20260905072017 60 275 6.1 14.8 0.00 0.06 0.05 63 1017.4
20260905071533 61 164 5.2 13.9 0.00 0.06 0.05 63 1017.4
20260905071016 61 309 7.0 13.9 0.00 0.06 0.05 62 1017.4
20260905070518 61 244 4.3 13.0 0.00 0.06 0.05 63 1017.3
20260905070038 61 269 5.2 13.0 0.00 0.06 0.05 64 1017.3
20260905065518 61 270 4.3 13.0 0.00 0.06 0.05 62 1017.3
20260905065021 61 360 3.5 14.8 0.00 0.06 0.05 62 1017.2
20260905064536 62 260 7.0 14.8 0.00 0.06 0.05 61 1017.2
20260905064016 62 217 5.2 13.9 0.00 0.06 0.05 63 1017.1
20260905063519 62 271 4.3 14.8 0.00 0.06 0.05 62 1017.1
20260905063034 62 279 6.1 14.8 0.00 0.06 0.05 62 1017.1
20260905062522 62 204 5.2 13.9 0.00 0.06 0.05 62 1017.0
20260905062016 62 307 6.1 13.9 0.00 0.06 0.05 63 1016.9
20260905061540 62 254 5.2 13.9 0.00 0.06 0.05 63 1016.8
20260905061017 62 294 5.2 17.4 0.00 0.06 0.05 63 1016.9
20260905060520 61 242 6.1 17.4 0.00 0.06 0.05 63 1016.8
20260905060038 61 258 6.1 15.6 0.00 0.06 0.05 63 1016.7
20260905055518 62 290 6.1 18.2 0.00 0.06 0.05 62 1016.5
20260905055018 62 254 5.2 18.2 0.00 0.06 0.05 62 1016.4
20260905054534 62 282 6.1 17.4 0.00 0.06 0.05 62 1016.6
20260905054015 62 284 7.0 17.4 0.00 0.06 0.05 61 1016.5
20260905053520 63 276 7.0 17.4 0.00 0.06 0.05 60 1016.5
20260905053035 63 259 6.1 13.9 0.00 0.06 0.05 60 1016.5
20260905052522 63 284 6.1 14.8 0.00 0.06 0.05 59 1016.5
20260905052019 62 196 7.8 15.6 0.00 0.06 0.05 59 1016.6
20260905051536 63 271 7.0 15.6 0.00 0.06 0.05 59 1016.5
20260905051017 62 244 7.0 15.6 0.00 0.06 0.05 61 1016.6
20260905050518 62 287 5.2 15.6 0.00 0.06 0.05 62 1016.6
20260905050035 62 269 5.2 13.9 0.00 0.06 0.05 62 1016.5
20260905045516 62 243 4.3 15.6 0.00 0.06 0.05 61 1016.5
20260905045016 63 225 6.1 15.6 0.00 0.06 0.05 59 1016.4
20260905044539 64 300 5.2 17.4 0.00 0.06 0.05 59 1016.2
20260905044017 64 308 7.0 17.4 0.00 0.06 0.05 57 1016.1
20260905043517 64 221 6.1 14.8 0.00 0.06 0.05 59 1016.1
20260905043033 63 245 6.1 16.5 0.00 0.06 0.05 60 1016.0
20260905042516 64 231 6.1 16.5 0.00 0.06 0.05 60 1016.0
20260905042016 63 284 7.0 16.5 0.00 0.06 0.05 60 1016.0
20260905041535 63 284 5.2 15.6 0.00 0.06 0.05 60 1015.9
20260905041020 63 297 7.0 15.6 0.00 0.06 0.05 60 1016.0
20260905040518 62 294 6.1 13.9 0.00 0.06 0.05 60 1016.0
20260905040035 62 297 7.0 13.9 0.00 0.06 0.05 59 1016.1
20260905035520 62 268 5.2 18.2 0.00 0.06 0.05 58 1016.0
20260905035018 62 309 7.8 19.1 0.00 0.06 0.05 63 1016.0
20260905034534 62 360 7.0 19.1 0.00 0.06 0.05 62 1016.1
20260905034017 63 283 7.0 15.6 0.00 0.06 0.05 61 1016.0
20260905033518 63 306 6.1 15.6 0.00 0.06 0.05 62 1016.1
20260905033036 63 261 6.1 14.8 0.00 0.06 0.05 61 1016.1
20260905032518 63 307 5.2 17.4 0.00 0.06 0.05 60 1016.0
20260905032021 63 307 6.1 17.4 0.00 0.06 0.05 61 1016.1
20260905031537 62 285 7.0 18.2 0.00 0.06 0.05 62 1016.0
20260905031017 62 286 5.2 18.2 0.00 0.06 0.05 62 1016.0
20260905030517 62 313 7.0 15.6 0.00 0.06 0.05 60 1016.0
20260905030039 63 249 6.1 14.8 0.00 0.06 0.05 61 1016.0
20260905025516 63 265 6.1 14.8 0.00 0.06 0.05 60 1015.9
20260905025018 63 273 7.0 13.9 0.00 0.06 0.05 62 1015.9
20260905024534 62 271 6.1 13.9 0.00 0.06 0.05 62 1015.9
20260905024016 62 260 4.3 11.3 0.00 0.06 0.05 63 1015.9
20260905023517 62 286 3.5 12.2 0.00 0.06 0.05 64 1015.9
20260905023034 62 301 4.3 14.8 0.00 0.06 0.05 65 1015.9
20260905022520 62 264 2.6 14.8 0.00 0.16 0.05 67 1015.9
20260905022018 62 296 4.3 15.6 0.00 0.16 0.05 66 1015.9
20260905021533 62 296 4.3 15.6 0.00 0.16 0.05 65 1015.8
20260905021017 62 308 5.2 13.0 0.00 0.16 0.05 66 1015.6
20260905020519 62 325 6.1 13.0 0.00 0.16 0.05 66 1015.7
20260905020053 62 306 6.1 13.9 0.00 0.16 0.05 66 1015.6
20260905015519 62 315 4.3 13.9 0.00 0.16 0.05 68 1015.6
20260905015019 61 360 4.3 12.2 0.00 0.16 0.05 69 1015.8
20260905014535 61 360 5.2 12.2 0.00 0.16 0.05 68 1015.6
20260905014016 61 360 4.3 12.2 0.00 0.16 0.05 69 1015.7
20260905013518 61 267 3.5 10.4 0.00 0.16 0.05 70 1015.7
20260905013039 61 360 4.3 10.4 0.00 0.16 0.05 70 1015.6
20260905012520 61 259 3.5 13.9 0.00 0.16 0.05 72 1015.6
20260905012017 60 360 5.2 17.4 0.00 0.16 0.05 72 1015.5
20260905011535 60 360 5.2 17.4 0.00 0.16 0.05 75 1015.4
20260905011019 59 360 4.3 14.8 0.00 0.16 0.05 78 1015.2
20260905010520 58 360 6.1 14.8 0.00 0.16 0.05 79 1015.1
20260905010034 58 360 4.3 10.4 0.00 0.16 0.05 81 1015.1
20260905005515 57 360 3.5 10.4 0.00 0.16 0.05 82 1015.1
20260905005022 57 360 3.5 11.3 0.00 0.16 0.05 83 1014.9
20260905004533 57 299 3.5 11.3 0.00 0.16 0.05 84 1014.8
20260905004018 57 360 3.5 10.4 0.00 0.16 0.05 84 1014.8
20260905003519 56 295 2.6 13.0 0.00 0.16 0.05 83 1014.9
20260905003032 56 286 3.5 15.6 0.00 0.16 0.05 83 1014.8
20260905002520 57 263 7.0 15.6 0.00 0.16 0.05 83 1015.0
20260905002024 57 288 4.3 9.6 0.04 0.15 0.04 83 1014.6
20260905001532 57 297 2.6 8.7 0.04 0.15 0.04 83 1014.4
20260905001016 57 279 3.5 9.6 0.04 0.15 0.04 83 1014.5
20260905000516 57 267 3.5 9.6 0.04 0.15 0.04 83 1014.4
20260905000034 56 250 3.5 9.6 0.04 0.15 0.04 82 1014.4
20260904235516 56 281 3.5 9.6 0.04 0.15 0.04 82 1014.4
20260904235022 56 246 2.6 9.6 0.04 0.15 0.04 81 1014.3
20260904234534 57 331 3.5 10.4 0.04 0.15 0.04 80 1014.2
20260904234018 57 273 4.3 12.2 0.04 0.15 0.04 80 1014.2
20260904233518 57 327 4.3 13.9 0.04 0.15 0.04 79 1014.2
20260904233040 58 306 4.3 13.9 0.04 0.15 0.04 78 1014.2
20260904232522 59 273 6.1 13.0 0.03 0.14 0.03 77 1014.2
20260904232019 59 290 5.2 13.0 0.00 0.11 0.00 76 1013.5
20260904231537 59 318 4.3 11.3 0.00 0.11 0.00 75 1013.3
20260904231016 59 311 4.3 11.3 0.00 0.11 0.00 75 1013.4
20260904230522 59 296 4.3 9.6 0.00 0.11 0.00 74 1013.6
20260904230034 59 346 4.3 10.4 0.00 0.11 0.00 74 1013.3
20260904225518 59 360 4.3 10.4 0.00 0.11 0.00 74 1013.5
20260904225015 59 360 3.5 10.4 0.00 0.11 0.00 74 1013.5
20260904224537 59 323 2.6 10.4 0.00 0.11 0.00 74 1013.6
20260904224018 59 284 4.3 10.4 0.00 0.11 0.00 74 1013.5
20260904223518 59 293 3.5 10.4 0.00 0.11 0.00 75 1013.4
20260904223036 59 285 3.5 10.4 0.00 0.11 0.00 75 1013.4
20260904222522 58 298 4.3 10.4 0.00 0.11 0.00 76 1013.1
20260904222019 58 332 3.5 9.6 0.00 0.11 0.00 76 1013.2
20260904221537 58 300 4.3 9.6 0.00 0.11 0.00 76 1013.2
20260904221017 57 333 3.5 10.4 0.00 0.11 0.00 76 1013.1
20260904220518 57 360 4.3 10.4 0.00 0.11 0.00 76 1013.1
20260904220037 57 360 3.5 8.7 0.00 0.11 0.00 76 1013.1
20260904215516 57 360 4.3 8.7 0.00 0.11 0.00 77 1013.0
20260904215017 57 360 2.6 8.7 0.00 0.11 0.00 77 1013.1
20260904214536 57 360 2.6 8.7 0.00 0.11 0.00 77 1013.1
20260904214015 57 360 2.6 8.7 0.00 0.11 0.00 77 1013.0
20260904213518 57 360 3.5 8.7 0.00 0.11 0.00 77 1012.9
20260904213033 57 360 2.6 8.7 0.00 0.11 0.00 76 1012.9
20260904212516 57 287 3.5 10.4 0.00 0.11 0.00 76 1013.0
20260904212015 57 292 2.6 10.4 0.00 0.11 0.00 76 1013.0
20260904211535 57 313 2.6 11.3 0.00 0.11 0.00 76 1012.9
20260904211022 57 360 3.5 11.3 0.00 0.11 0.00 76 1012.9
20260904210518 57 360 2.6 13.0 0.00 0.11 0.00 76 1012.9
20260904210043 57 360 2.6 13.0 0.00 0.11 0.00 76 1012.8
20260904205527 57 360 4.3 11.3 0.00 0.11 0.00 76 1012.7
20260904205018 57 360 3.5 11.3 0.00 0.11 0.00 76 1012.7
20260904204535 57 249 1.7 7.8 0.00 0.11 0.00 76 1012.5
20260904204022 58 360 3.5 7.8 0.00 0.11 0.00 76 1012.4
20260904203518 58 360 2.6 7.8 0.00 0.11 0.00 77 1012.3
20260904203034 58 271 2.6 10.4 0.00 0.11 0.00 77 1012.4
20260904202519 58 275 2.6 10.4 0.00 0.11 0.00 78 1012.2
20260904202015 59 291 3.5 9.6 0.00 0.11 0.00 78 1012.2
20260904201535 59 249 2.6 12.2 0.00 0.11 0.00 79 1012.0
20260904201015 59 264 4.3 12.2 0.00 0.11 0.00 79 1011.9
20260904200520 59 258 3.5 12.2 0.00 0.11 0.00 79 1011.8
20260904200038 59 306 4.3 12.2 0.00 0.11 0.00 79 1011.8
20260904195524 59 286 3.5 10.4 0.00 0.11 0.00 80 1012.0
20260904195019 59 288 3.5 9.6 0.00 0.11 0.00 80 1011.8
20260904194536 59 288 2.6 13.0 0.00 0.11 0.00 80 1011.8
20260904194019 59 278 3.5 13.0 0.00 0.11 0.00 80 1011.6
20260904193519 59 292 4.3 10.4 0.00 0.11 0.00 80 1011.5
20260904193036 59 267 2.6 8.7 0.00 0.11 0.00 80 1011.4
20260904192516 59 294 2.6 8.7 0.00 0.11 0.00 80 1011.4
20260904192018 59 285 2.6 7.8 0.00 0.11 0.00 80 1011.3
20260904191535 59 306 2.6 7.0 0.00 0.11 0.00 80 1011.3
20260904191018 59 315 1.7 5.2 0.00 0.11 0.00 80 1011.2
20260904190516 59 318 1.7 4.3 0.00 0.11 0.00 80 1011.2
20260904190035 60 0 0.9 5.2 0.00 0.11 0.00 80 1011.0
20260904185516 60 344 0.9 6.1 0.00 0.11 0.00 80 1010.9
20260904185019 60 360 1.7 6.1 0.00 0.11 0.00 80 1010.8
20260904184533 60 310 1.7 7.0 0.00 0.11 0.00 79 1010.8
20260904184019 60 318 0.9 7.0 0.00 0.11 0.00 79 1010.8
20260904183516 60 318 0.9 7.0 0.00 0.11 0.00 79 1010.8
20260904183034 60 0 1.7 8.7 0.00 0.11 0.00 79 1010.8
20260904182524 60 329 0.9 8.7 0.00 0.11 0.00 79 1010.7
20260904182025 60 313 1.7 7.8 0.00 0.11 0.00 79 1010.6
20260904181534 60 305 2.6 7.8 0.00 0.11 0.00 79 1010.6
20260904181018 60 329 1.7 4.3 0.00 0.11 0.00 79 1010.4
20260904180520 60 332 0.9 3.5 0.00 0.11 0.00 79 1010.6
20260904180035 60 333 0.9 3.5 0.00 0.11 0.00 79 1010.5
20260904175520 60 0 0.0 4.3 0.00 0.11 0.00 79 1010.5
20260904175016 60 334 0.9 4.3 0.00 0.11 0.00 79 1010.4
20260904174534 60 0 0.0 2.6 0.00 0.11 0.00 79 1010.6
20260904174018 60 0 0.0 2.6 0.00 0.11 0.00 79 1010.5
20260904173516 60 360 0.0 2.6 0.00 0.11 0.00 79 1010.5
20260904173035 60 0 0.0 2.6 0.00 0.11 0.00 78 1010.4
20260904172519 60 341 0.0 2.6 0.00 0.11 0.00 78 1010.2
20260904172019 60 0 0.0 3.5 0.00 0.11 0.00 78 1010.3
20260904171542 60 340 0.0 3.5 0.00 0.11 0.00 78 1010.3
20260904171019 60 341 0.9 3.5 0.00 0.11 0.00 78 1010.5
20260904170518 61 0 0.0 3.5 0.00 0.11 0.00 78 1010.4
20260904170033 61 0 0.0 3.5 0.00 0.11 0.00 78 1010.4
20260904165518 61 0 0.0 2.6 0.00 0.11 0.00 78 1010.4
20260904165016 61 344 0.0 5.2 0.00 0.11 0.00 77 1010.5
20260904164533 61 344 1.7 5.2 0.00 0.11 0.00 77 1010.6
20260904164017 61 344 0.9 5.2 0.00 0.11 0.00 77 1010.6
20260904163516 61 344 1.7 5.2 0.00 0.11 0.00 77 1010.6
20260904163035 61 343 1.7 5.2 0.00 0.11 0.00 77 1010.7
20260904162517 61 341 0.9 4.3 0.00 0.11 0.00 76 1010.7
20260904162019 61 340 0.9 3.5 0.00 0.11 0.00 76 1010.6
20260904161536 61 340 0.9 3.5 0.00 0.11 0.00 76 1010.6
20260904161018 61 340 0.9 3.5 0.00 0.11 0.00 76 1010.7
20260904160516 61 0 0.0 3.5 0.00 0.11 0.00 76 1010.7
20260904160034 61 340 0.9 3.5 0.00 0.11 0.00 75 1010.8
20260904155519 61 0 0.9 3.5 0.00 0.11 0.00 75 1010.6
20260904155019 61 0 0.0 0.0 0.00 0.11 0.00 75 1010.5
20260904154534 61 0 0.0 2.6 0.00 0.11 0.00 75 1010.4
20260904154018 61 0 0.0 2.6 0.00 0.11 0.00 75 1010.2
20260904153517 62 339 0.9 2.6 0.00 0.11 0.00 75 1010.3
20260904153037 62 0 0.0 1.7 0.00 0.11 0.00 75 1010.2
20260904152518 62 0 0.0 0.9 0.00 0.11 0.00 75 1010.2
20260904152017 62 0 0.0 0.9 0.00 0.11 0.00 75 1010.7
20260904151534 62 0 0.0 2.6 0.00 0.11 0.00 75 1010.4
20260904151019 62 0 0.0 2.6 0.00 0.11 0.00 75 1010.7
20260904150519 62 0 0.0 3.5 0.00 0.11 0.00 75 1010.5
20260904150038 62 0 0.0 3.5 0.00 0.11 0.00 75 1010.4
20260904145517 62 340 0.9 3.5 0.00 0.11 0.00 75 1010.4
20260904145018 62 340 0.9 2.6 0.00 0.11 0.00 75 1010.2